KC8RP Weather Reports


time (UTC)temp
C
wind
direction
speed
KPH
gust
KPH
rain 1hr
cm
rain 24hr
cm
rain mn
cm
humidity
%
barometer
mb
20260509033049 13 360 0.0 4.8 0.00 0.00 0.00 81 1007.5
20260509031612 13 360 3.2 6.4 0.00 0.00 0.00 80 1007.5
20260509030046 13 360 1.6 6.4 0.00 0.00 0.00 79 1007.7
20260509024546 13 360 3.2 9.7 0.00 0.00 0.00 79 1007.9
20260509023045 13 360 3.2 8.0 0.00 0.00 0.00 79 1007.9
20260509021545 13 360 4.8 9.7 0.00 0.00 0.00 79 1007.8
20260509020043 13 360 1.6 6.4 0.00 0.00 0.00 78 1007.2
20260509014544 14 360 0.0 3.2 0.00 0.00 0.00 78 1007.1
20260509013045 14 360 0.0 3.2 0.00 0.00 0.00 77 1007.1
20260509011547 15 360 1.6 8.0 0.00 0.00 0.00 75 1007.1
20260509010044 15 360 3.2 19.3 0.00 0.00 0.00 73 1007.0
20260509004548 15 360 0.0 0.0 0.00 0.00 0.00 74 1006.6
20260509003040 16 360 0.0 0.0 0.00 0.00 0.00 72 1006.4
20260509001540 16 360 0.0 0.0 0.00 0.00 0.00 72 1006.5
20260509000049 16 360 0.0 0.0 0.00 0.00 0.00 71 1006.7
20260508234539 16 360 0.0 0.0 0.00 0.00 0.00 72 1006.5
20260508233038 17 360 0.0 0.0 0.00 0.00 0.00 67 1006.4
20260508231537 17 360 0.0 0.0 0.00 0.00 0.00 63 1006.5
20260508230036 18 360 0.0 0.0 0.00 0.00 0.00 59 1006.4
20260508224535 18 360 0.0 0.0 0.00 0.00 0.00 53 1006.3
20260508223037 19 360 0.0 0.0 0.00 0.00 0.00 50 1006.2
20260508221537 19 360 0.0 4.8 0.00 0.00 0.00 48 1006.2
20260508220038 19 360 0.0 8.0 0.00 0.00 0.00 49 1006.2
20260508214533 19 360 1.6 8.0 0.00 0.00 0.00 46 1006.1
20260508213043 20 360 3.2 9.7 0.00 0.00 0.00 44 1006.3
20260508211534 20 360 4.8 12.9 0.00 0.00 0.00 45 1006.4
20260508210032 20 360 3.2 17.7 0.00 0.00 0.00 44 1006.5
20260508204526 19 360 1.6 12.9 0.00 0.00 0.00 44 1006.9
20260508203024 20 360 8.0 17.7 0.00 0.00 0.00 43 1007.2
20260508201522 20 360 6.4 20.9 0.00 0.00 0.00 43 1007.3
20260508200029 20 360 3.2 17.7 0.00 0.00 0.00 46 1007.5
20260508194519 20 360 6.4 14.5 0.00 0.00 0.00 42 1007.6
20260508193018 20 360 12.9 29.0 0.00 0.00 0.00 41 1007.6
20260508191525 20 360 6.4 19.3 0.00 0.00 0.00 44 1007.7
20260508190016 21 174 4.8 30.6 0.00 0.00 0.00 40 1007.9
20260508184518 21 360 3.2 19.3 0.00 0.00 0.00 41 1008.3
20260508183013 21 360 3.2 19.3 0.00 0.00 0.00 44 1008.4
20260508181528 20 360 9.7 27.4 0.00 0.00 0.00 42 1008.9
20260508180007 20 360 12.9 29.0 0.00 0.00 0.00 41 1009.1
20260508174514 20 360 11.3 25.7 0.00 0.00 0.00 45 1009.3
20260508173101 18 360 4.8 25.7 0.00 0.00 0.00 47 1009.5
20260508171600 18 360 4.8 20.9 0.00 0.00 0.00 46 1009.8
20260508170058 18 360 6.4 19.3 0.00 0.00 0.00 46 1009.9
20260508164557 18 246 4.8 20.9 0.00 0.00 0.00 45 1010.4
20260508163053 19 211 12.9 33.8 0.00 0.00 0.00 45 1010.7
20260508161548 19 198 6.4 25.7 0.00 0.00 0.00 47 1010.8
20260508160044 18 360 8.0 27.4 0.00 0.00 0.00 48 1010.8
20260508154551 18 360 6.4 22.5 0.00 0.00 0.00 49 1011.0
20260508153037 17 360 8.0 20.9 0.00 0.00 0.00 53 1011.2
20260508151533 17 360 6.4 25.7 0.00 0.00 0.00 52 1011.4
20260508150030 16 360 8.0 16.1 0.00 0.00 0.00 55 1011.5
20260508144526 15 360 6.4 22.5 0.00 0.00 0.00 54 1011.7
20260508143024 15 360 6.4 24.1 0.00 0.00 0.00 56 1011.7
20260508141620 14 360 4.8 16.1 0.00 0.00 0.00 55 1011.9
20260508140018 13 360 6.4 19.3 0.00 0.00 0.00 55 1012.0
20260508134514 13 360 12.9 30.6 0.00 0.00 0.00 55 1012.0
20260508133016 12 360 4.8 22.5 0.00 0.00 0.00 57 1012.0
20260508131509 12 360 6.4 16.1 0.00 0.00 0.00 57 1012.1
20260508130008 12 360 4.8 16.1 0.00 0.00 0.00 56 1012.0
20260508124505 12 360 4.8 17.7 0.00 0.00 0.00 57 1012.0
20260508123000 11 360 8.0 19.3 0.00 0.00 0.00 58 1011.9
20260508121607 11 360 8.0 16.1 0.00 0.00 0.00 60 1011.9
20260508114555 10 360 4.8 16.1 0.00 0.00 0.00 61 1011.8
20260508113058 10 360 6.4 16.1 0.00 0.00 0.00 61 1011.8
20260508111558 10 360 3.2 9.7 0.00 0.00 0.00 61 1011.6
20260508110059 9 360 3.2 8.0 0.00 0.00 0.00 64 1011.4
20260508104549 8 360 3.2 8.0 0.00 0.00 0.00 68 1011.4
20260508103109 8 360 1.6 8.0 0.00 0.00 0.00 73 1011.5
20260508101552 7 360 1.6 9.7 0.00 0.00 0.00 74 1011.5
20260508100047 7 360 0.0 4.8 0.00 0.00 0.00 76 1011.4
20260508094603 7 360 0.0 3.2 0.00 0.00 0.00 75 1011.5
20260508093045 7 360 0.0 0.0 0.00 0.00 0.00 75 1011.6
20260508091544 7 360 0.0 3.2 0.00 0.00 0.00 73 1011.7
20260508090057 7 360 0.0 4.8 0.00 0.00 0.00 72 1011.7
20260508084543 7 360 0.0 3.2 0.00 0.00 0.00 73 1011.6
20260508083048 7 360 0.0 4.8 0.00 0.00 0.00 71 1011.4
20260508081542 7 360 0.0 6.4 0.00 0.00 0.00 71 1011.3
20260508080039 8 360 1.6 4.8 0.00 0.00 0.00 68 1011.3
20260508074539 8 360 0.0 3.2 0.00 0.00 0.00 66 1011.4
20260508073038 9 360 3.2 8.0 0.00 0.00 0.00 63 1011.4
20260508071536 9 360 3.2 16.1 0.00 0.00 0.00 62 1011.4
20260508070135 9 360 3.2 12.9 0.00 0.00 0.00 61 1011.5
20260508064541 9 360 3.2 6.4 0.00 0.00 0.00 61 1011.6
20260508063030 10 360 3.2 8.0 0.00 0.00 0.00 61 1012.0
20260508061535 10 360 3.2 8.0 0.00 0.00 0.00 59 1012.0
20260508060030 9 360 3.2 12.9 0.00 0.00 0.00 62 1012.1
20260508054531 8 360 3.2 14.5 0.00 0.00 0.00 65 1012.0
20260508053028 7 360 1.6 8.0 0.00 0.00 0.00 70 1012.1
20260508051525 8 360 0.0 8.0 0.00 0.00 0.00 68 1012.1
20260508050025 8 360 0.0 4.8 0.00 0.00 0.00 67 1012.1
20260508044517 9 360 0.0 4.8 0.00 0.00 0.00 64 1012.1
20260508043014 10 360 1.6 4.8 0.00 0.00 0.00 58 1012.0
20260508041510 10 360 1.6 3.2 0.00 0.00 0.00 55 1012.0
20260508040017 11 360 1.6 8.0 0.00 0.00 0.00 54 1011.9
20260508034508 10 360 3.2 8.0 0.00 0.00 0.00 54 1011.6